Погода в Григорьевке

Россия / Красноярский край     53°13′27″N   92°50′39″E
темп.,
°C
ветер,
м/с
пор.,
м/с
влажн.,
%
обл.,
%
осадки,
мм/ч
давл.,
гПа
погр.,
м
9 мая, вс
вс901:00+10зюз2866100 0.0 1014243
04:00+10з41169100 0.3 1014696
07:00+9зюз41490100 2.8 10141286
10:00+7с4793100 3.1 1015686
13:00+5св0293100 12.5 1017600
16:00+5ссз1293100 2.1 1018497
19:00+4з1194100 3.6 1019468
22:00+4зюз2497100 0.1 1020295
10 мая, пн
пн1001:00+4зюз239489 0.2 1020261
04:00+2з119651 0.1 102110
07:00+4з12885 0.2 1022203
10:00+8зсз226781 0.1 10231206
13:00+9ссз225897 0.3 10221472
16:00+10ссв225479 0.1 10221376
19:00+9всв136237 0.1 1021157
22:00+4вюв11760 0.0 102112
11 мая, вт
вт1101:00+2в23870 0.0 101971
04:000в23881 0.0 101772
07:00+4в24700 0.0 1016167
10:00+13всв144639 0.0 1013774
13:00+18вюв1429100 0.0 10112389
16:00+18юз1330100 0.0 10092284
19:00+15ссз115492 0.0 101011
22:00+9юз1170100 0.0 101110
12 мая, ср
ср1201:00+8юз1176100 0.0 101115
04:00+9з2875100 0.0 1012255
07:00+10сз1377100 0.0 1013180
10:00+13з4558100 0.1 10131277
13:00+15зсз3449100 0.1 10121712
16:00+16з254484 0.4 10112071
19:00+13сз1365100 1.2 101291
22:00+8з2381100 0.1 101567
13 мая, чт
чт1301:00+7з258768 0.1 1017155
04:00+4юз259418 0.0 1018125
07:00+7зюз268118 0.0 1019411
10:00+11з3456100 0.0 10181147
13:00+13з2345100 0.0 10171531
16:00+15зсз1241100 0.0 10151719
19:00+13з1155100 0.0 101518
22:00+7ю226717 0.0 101612